Flag for Peru Weather past 2 weeks in Chiclayo, Lambayeque, Peru

Now
70 °F

Clear.


Feels Like: 70 °F
Forecast: 70 / 79 °F
Wind: 12 mph from South

Location: Chiclayo Airport

Current Time: Jun 30, 2015 at 1:04:51 AM

Latest Report: Jun 30, 2015 at 12:00 AM


Visibility: 10 mi

Pressure: 29.92 "Hg

Humidity: 88%

Dew point: 66 °F

Location of ChiclayoLocation

Historic Weather in Chiclayo — Graph

°F

Chiclayo temperature yesterday

Maximum temperature yesterday: 82 °F (at 1:00 PM)
Minimum temperature yesterday: 70 °F (at 12:00 AM)
Average temperature yesterday: 74 °F

Past Weeks' High & Low Weather Summary

 TemperatureHumidityPressure
High84 °F (Jun 25, 5:00 PM)100% (Jun 26, 3:00 AM)29.95 "Hg (Jun 26, 3:00 AM)
Low66 °F (Jun 22, 6:00 AM)51% (Jun 25, 5:00 PM)29.74 "Hg (Jun 17, 3:00 PM)
Average72 °F82%29.85 "Hg
* Reported Midnight between Jun 14 and Jun 15 — Midnight between Jun 29 and Jun 30, Chiclayo, Weather by CustomWeather, © 2015

Note: Actual official high and low records may vary slightly from our data, if they occured in-between our weather recording intervals... More about our weather records

Advertising

Chiclayo weather history for previous 24 hours

 ConditionsComfort  
Time TempWeatherWind HumidityBarometerVisibility
12:00 AM
Tue, Jun 30
70 °FClear.12 mph88%29.92 "Hg10 mi
11:00 PM
Mon, Jun 29
70 °FClear.9 mph88%29.89 "Hg10 mi
10:00 PM70 °FClear.13 mph88%29.89 "Hg10 mi
9:00 PM72 °FClear.16 mph83%29.89 "Hg10 mi
8:00 PM72 °FClear.16 mph83%29.86 "Hg10 mi
7:00 PM73 °FClear.15 mph78%29.83 "Hg10 mi
6:00 PM77 °FSunny.12 mph69%29.80 "Hg10 mi
5:00 PM79 °FSunny.12 mph65%29.80 "Hg10 mi
4:00 PM81 °FSunny.12 mph62%29.77 "Hg10 mi
3:00 PM82 °FPassing clouds.12 mph58%29.80 "HgN/A
1:00 PM82 °FPartly sunny.2 mph58%29.86 "HgN/A
12:00 PM79 °FSunny.5 mph65%29.89 "Hg10 mi
11:00 AM77 °FPartly sunny.6 mph69%29.92 "HgN/A
10:00 AM77 °FScattered clouds.5 mph69%29.92 "HgN/A
9:00 AM75 °FPassing clouds.8 mph74%29.92 "HgN/A
8:00 AM72 °FPartly sunny.7 mph88%29.92 "Hg5 mi
7:00 AM70 °FMild.7 mph94%29.92 "Hg5 mi
6:00 AM70 °FOvercast.5 mph94%29.89 "HgN/A
5:00 AM70 °FOvercast.5 mph94%29.89 "HgN/A
4:00 AM70 °FOvercast.6 mph94%29.89 "HgN/A
3:00 AM70 °FOvercast.6 mph88%29.89 "HgN/A
2:00 AM70 °FPassing clouds.6 mph88%29.89 "HgN/A
1:00 AM70 °FClear.6 mph88%29.89 "Hg10 mi
Weather by CustomWeather, © 2015

See weather overviewHow to use our weather pages